Time,TemperatureF,DewpointF,PressureIn,WindDirection,WindDirectionDegrees,WindSpeedMPH,WindSpeedGustMPH,Humidity,HourlyPrecipIn,Conditions,Clouds,dailyrainin,SoftwareType,DateUTC
2014-08-23 00:02:00,81.7,75.9,29.97,SSW,207,2.0,3.0,83,0.00,,,0.00,meteohub,2014-08-23 05:02:00,
2014-08-23 00:08:00,81.5,76.3,29.97,WSW,248,1.0,3.0,84,0.00,,,0.00,meteohub,2014-08-23 05:08:00,
2014-08-23 00:13:00,81.3,76.1,29.97,WNW,287,0.0,3.0,84,0.00,,,0.00,meteohub,2014-08-23 05:13:00,
2014-08-23 00:18:00,81.3,76.1,29.96,WNW,285,3.0,5.0,84,0.00,,,0.00,meteohub,2014-08-23 05:18:00,
2014-08-23 00:23:00,81.1,76.3,29.96,WSW,256,2.0,7.0,85,0.00,,,0.00,meteohub,2014-08-23 05:23:00,
2014-08-23 00:28:00,81.1,76.3,29.96,WSW,250,3.0,7.0,85,0.00,,,0.00,meteohub,2014-08-23 05:28:00,
2014-08-23 00:33:00,81.0,76.1,29.96,SSW,212,1.0,7.0,85,0.00,,,0.00,meteohub,2014-08-23 05:33:00,
2014-08-23 00:38:00,81.0,76.1,29.96,SW,219,0.0,4.0,85,0.00,,,0.00,meteohub,2014-08-23 05:38:00,
2014-08-23 00:43:00,80.8,76.3,29.96,WSW,256,1.0,4.0,86,0.00,,,0.00,meteohub,2014-08-23 05:43:00,
2014-08-23 00:48:00,80.8,76.3,29.96,SW,227,1.0,3.0,86,0.00,,,0.00,meteohub,2014-08-23 05:48:00,
2014-08-23 00:53:00,80.4,75.9,29.96,SW,229,1.0,3.0,86,0.00,,,0.00,meteohub,2014-08-23 05:53:00,
2014-08-23 00:58:00,80.4,75.9,29.96,WNW,284,1.0,3.0,86,0.00,,,0.00,meteohub,2014-08-23 05:58:00,
2014-08-23 01:03:00,80.4,75.9,29.96,WNW,285,0.0,3.0,86,0.00,,,0.00,meteohub,2014-08-23 06:03:00,
2014-08-23 01:08:00,80.6,76.1,29.95,WSW,250,1.0,2.0,86,0.00,,,0.00,meteohub,2014-08-23 06:08:00,
2014-08-23 01:13:00,80.4,75.9,29.95,SW,231,0.0,1.0,86,0.00,,,0.00,meteohub,2014-08-23 06:13:00,
2014-08-23 01:18:00,80.2,76.1,29.95,SW,229,1.0,1.0,87,0.00,,,0.00,meteohub,2014-08-23 06:18:00,
2014-08-23 01:23:00,80.2,76.1,29.95,WNW,291,2.0,2.0,87,0.00,,,0.00,meteohub,2014-08-23 06:23:00,
2014-08-23 01:28:00,80.2,76.1,29.95,West,280,2.0,4.0,87,0.00,,,0.00,meteohub,2014-08-23 06:28:00,
2014-08-23 01:33:00,80.2,76.1,29.95,West,259,1.0,4.0,87,0.00,,,0.00,meteohub,2014-08-23 06:33:00,
2014-08-23 01:38:00,80.4,76.1,29.95,WSW,249,3.0,4.0,87,0.00,,,0.00,meteohub,2014-08-23 06:38:00,
2014-08-23 01:43:00,80.4,76.1,29.95,WSW,249,0.0,4.0,87,0.00,,,0.00,meteohub,2014-08-23 06:43:00,
2014-08-23 01:48:00,80.4,76.1,29.96,West,281,1.0,4.0,87,0.00,,,0.00,meteohub,2014-08-23 06:48:00,
2014-08-23 01:53:00,80.6,76.3,29.96,WSW,245,1.0,3.0,87,0.00,,,0.00,meteohub,2014-08-23 06:53:00,
2014-08-23 01:58:00,80.4,76.1,29.96,NW,318,2.0,3.0,87,0.00,,,0.00,meteohub,2014-08-23 06:58:00,
2014-08-23 02:03:00,80.6,76.3,29.96,WSW,239,2.0,3.0,87,0.00,,,0.00,meteohub,2014-08-23 07:03:00,
2014-08-23 02:08:00,80.4,76.1,29.95,West,260,1.0,4.0,87,0.00,,,0.00,meteohub,2014-08-23 07:08:00,
2014-08-23 02:13:00,80.4,76.1,29.95,WSW,248,2.0,4.0,87,0.00,,,0.00,meteohub,2014-08-23 07:13:00,
2014-08-23 02:18:00,80.8,76.5,29.95,WNW,302,0.0,4.0,87,0.00,,,0.00,meteohub,2014-08-23 07:18:00,
2014-08-23 02:23:00,80.8,76.5,29.95,West,259,2.0,5.0,87,0.00,,,0.00,meteohub,2014-08-23 07:23:00,
2014-08-23 02:28:00,80.8,76.5,29.95,WNW,284,1.0,5.0,87,0.00,,,0.00,meteohub,2014-08-23 07:28:00,
2014-08-23 02:33:00,80.8,76.5,29.95,West,274,1.0,5.0,87,0.00,,,0.00,meteohub,2014-08-23 07:33:00,
2014-08-23 02:38:00,80.8,76.5,29.95,West,267,0.0,4.0,87,0.00,,,0.00,meteohub,2014-08-23 07:38:00,
2014-08-23 02:43:00,80.8,76.5,29.95,WNW,291,0.0,4.0,87,0.00,,,0.00,meteohub,2014-08-23 07:43:00,
2014-08-23 02:48:00,80.8,76.5,29.95,WSW,256,0.0,4.0,87,0.00,,,0.00,meteohub,2014-08-23 07:48:00,
2014-08-23 02:53:00,80.8,76.5,29.95,WSW,255,0.0,2.0,87,0.00,,,0.00,meteohub,2014-08-23 07:53:00,
2014-08-23 02:58:00,80.6,76.6,29.95,WNW,297,1.0,2.0,88,0.00,,,0.00,meteohub,2014-08-23 07:58:00,
2014-08-23 03:03:00,80.6,76.3,29.95,North,353,1.0,2.0,87,0.00,,,0.00,meteohub,2014-08-23 08:03:00,
2014-08-23 03:08:00,80.4,76.1,29.95,North,349,0.0,1.0,87,0.00,,,0.00,meteohub,2014-08-23 08:08:00,
2014-08-23 03:13:00,80.4,76.5,29.95,North,349,0.0,1.0,88,0.00,,,0.00,meteohub,2014-08-23 08:13:00,
2014-08-23 03:18:00,80.4,76.5,29.95,West,264,0.0,1.0,88,0.00,,,0.00,meteohub,2014-08-23 08:18:00,
2014-08-23 03:23:00,80.4,76.5,29.95,West,265,0.0,1.0,88,0.00,,,0.00,meteohub,2014-08-23 08:23:00,
2014-08-23 03:28:00,80.2,76.3,29.96,West,264,0.0,1.0,88,0.00,,,0.00,meteohub,2014-08-23 08:28:00,
2014-08-23 03:33:00,80.1,76.5,29.95,West,264,0.0,1.0,89,0.00,,,0.00,meteohub,2014-08-23 08:33:00,
2014-08-23 03:39:00,80.1,76.5,29.96,West,262,0.0,1.0,89,0.00,,,0.00,meteohub,2014-08-23 08:39:00,
2014-08-23 03:44:00,79.9,76.3,29.96,SW,222,0.0,1.0,89,0.00,,,0.00,meteohub,2014-08-23 08:44:00,
2014-08-23 03:49:00,79.5,75.9,29.96,SW,219,0.0,1.0,89,0.00,,,0.00,meteohub,2014-08-23 08:49:00,
2014-08-23 03:54:00,79.5,76.3,29.96,SW,225,0.0,1.0,90,0.00,,,0.00,meteohub,2014-08-23 08:54:00,
2014-08-23 03:59:00,79.3,76.1,29.96,SW,225,0.0,1.0,90,0.00,,,0.00,meteohub,2014-08-23 08:59:00,
2014-08-23 04:04:00,79.2,75.9,29.96,SW,219,0.0,1.0,90,0.00,,,0.00,meteohub,2014-08-23 09:04:00,
2014-08-23 04:09:00,79.2,75.9,29.96,SW,218,0.0,1.0,90,0.00,,,0.00,meteohub,2014-08-23 09:09:00,
2014-08-23 04:14:00,79.2,75.9,29.96,SW,223,0.0,2.0,90,0.00,,,0.00,meteohub,2014-08-23 09:14:00,
2014-08-23 04:19:00,79.0,76.1,29.95,SW,222,0.0,2.0,91,0.00,,,0.00,meteohub,2014-08-23 09:19:00,
2014-08-23 04:24:00,79.0,76.1,29.95,SW,222,0.0,2.0,91,0.00,,,0.00,meteohub,2014-08-23 09:24:00,
2014-08-23 04:29:00,79.0,76.1,29.95,SW,224,0.0,2.0,91,0.00,,,0.00,meteohub,2014-08-23 09:29:00,
2014-08-23 04:34:00,78.8,75.9,29.94,SW,222,0.0,2.0,91,0.00,,,0.00,meteohub,2014-08-23 09:34:00,
2014-08-23 04:39:00,79.0,76.1,29.94,SW,222,0.0,1.0,91,0.00,,,0.00,meteohub,2014-08-23 09:39:00,
2014-08-23 04:44:00,78.8,75.9,29.95,WSW,243,1.0,2.0,91,0.00,,,0.00,meteohub,2014-08-23 09:44:00,
2014-08-23 04:49:00,78.8,75.9,29.94,WSW,249,0.0,2.0,91,0.00,,,0.00,meteohub,2014-08-23 09:49:00,
2014-08-23 04:54:00,78.8,75.9,29.94,SW,236,1.0,2.0,91,0.00,,,0.00,meteohub,2014-08-23 09:54:00,
2014-08-23 04:59:00,78.8,75.9,29.94,WSW,253,0.0,1.0,91,0.00,,,0.00,meteohub,2014-08-23 09:59:00,
2014-08-23 05:04:00,79.0,76.1,29.94,WSW,250,0.0,2.0,91,0.00,,,0.00,meteohub,2014-08-23 10:04:00,
2014-08-23 05:09:00,78.8,75.9,29.94,WSW,243,0.0,2.0,91,0.00,,,0.00,meteohub,2014-08-23 10:09:00,
2014-08-23 05:14:00,78.8,75.9,29.95,SW,225,0.0,1.0,91,0.00,,,0.00,meteohub,2014-08-23 10:14:00,
2014-08-23 05:19:00,78.6,76.1,29.95,SW,225,0.0,1.0,92,0.00,,,0.00,meteohub,2014-08-23 10:19:00,
2014-08-23 05:24:00,78.6,76.1,29.95,SW,225,0.0,1.0,92,0.00,,,0.00,meteohub,2014-08-23 10:24:00,
2014-08-23 05:29:00,78.8,76.3,29.95,SW,225,0.0,1.0,92,0.00,,,0.00,meteohub,2014-08-23 10:29:00,
2014-08-23 05:34:00,79.0,76.1,29.95,SW,225,0.0,1.0,91,0.00,,,0.00,meteohub,2014-08-23 10:34:00,
2014-08-23 05:39:00,79.0,76.1,29.95,SW,225,0.0,1.0,91,0.00,,,0.00,meteohub,2014-08-23 10:39:00,
2014-08-23 05:44:00,78.8,75.9,29.95,SW,225,0.0,1.0,91,0.00,,,0.00,meteohub,2014-08-23 10:44:00,
2014-08-23 05:49:00,79.0,76.5,29.95,WSW,243,1.0,1.0,92,0.00,,,0.00,meteohub,2014-08-23 10:49:00,
2014-08-23 05:54:00,79.0,76.1,29.95,SW,235,0.0,1.0,91,0.00,,,0.00,meteohub,2014-08-23 10:54:00,
2014-08-23 05:59:00,78.8,75.9,29.95,SW,235,0.0,1.0,91,0.00,,,0.00,meteohub,2014-08-23 10:59:00,
2014-08-23 06:04:00,78.8,75.9,29.96,SW,235,0.0,1.0,91,0.00,,,0.00,meteohub,2014-08-23 11:04:00,
2014-08-23 06:09:00,78.8,75.9,29.96,WSW,249,0.0,1.0,91,0.00,,,0.00,meteohub,2014-08-23 11:09:00,
2014-08-23 06:14:00,79.0,76.5,29.95,WSW,248,0.0,1.0,92,0.00,,,0.00,meteohub,2014-08-23 11:14:00,
2014-08-23 06:19:00,79.2,76.3,29.96,SW,231,2.0,2.0,91,0.00,,,0.00,meteohub,2014-08-23 11:19:00,
2014-08-23 06:24:00,79.0,76.1,29.96,SW,235,1.0,2.0,91,0.00,,,0.00,meteohub,2014-08-23 11:24:00,
2014-08-23 06:29:00,79.0,76.1,29.96,WSW,242,2.0,2.0,91,0.00,,,0.00,meteohub,2014-08-23 11:29:00,
2014-08-23 06:34:00,79.2,76.3,29.96,WSW,249,0.0,2.0,91,0.00,,,0.00,meteohub,2014-08-23 11:34:00,
2014-08-23 06:39:00,79.0,76.1,29.96,WSW,249,0.0,2.0,91,0.00,,,0.00,meteohub,2014-08-23 11:39:00,
2014-08-23 06:44:00,79.0,76.1,29.96,WSW,257,0.0,2.0,91,0.00,,,0.00,meteohub,2014-08-23 11:44:00,
2014-08-23 06:49:00,79.0,76.1,29.96,WSW,256,1.0,1.0,91,0.00,,,0.00,meteohub,2014-08-23 11:49:00,
2014-08-23 06:54:00,79.0,76.1,29.96,SW,232,1.0,1.0,91,0.00,,,0.00,meteohub,2014-08-23 11:54:00,
2014-08-23 06:59:00,79.0,76.1,29.97,SW,223,1.0,1.0,91,0.00,,,0.00,meteohub,2014-08-23 11:59:00,
2014-08-23 07:04:00,78.8,75.9,29.97,East,92,0.0,1.0,91,0.00,,,0.00,meteohub,2014-08-23 12:04:00,
2014-08-23 07:09:00,78.6,75.7,29.97,East,92,0.0,1.0,91,0.00,,,0.00,meteohub,2014-08-23 12:09:00,
2014-08-23 07:14:00,78.4,75.6,29.97,East,92,0.0,1.0,91,0.00,,,0.00,meteohub,2014-08-23 12:14:00,
2014-08-23 07:19:00,78.6,75.7,29.97,East,92,0.0,1.0,91,0.00,,,0.00,meteohub,2014-08-23 12:19:00,
2014-08-23 07:24:00,78.6,76.1,29.97,SW,218,1.0,1.0,92,0.00,,,0.00,meteohub,2014-08-23 12:24:00,
2014-08-23 07:29:00,78.8,76.3,29.97,SW,218,0.0,0.0,92,0.00,,,0.00,meteohub,2014-08-23 12:29:00,
2014-08-23 07:34:00,79.0,76.5,29.97,SSW,205,0.0,2.0,92,0.00,,,0.00,meteohub,2014-08-23 12:34:00,
2014-08-23 07:39:00,79.2,76.6,29.97,SSW,205,0.0,2.0,92,0.00,,,0.00,meteohub,2014-08-23 12:39:00,
2014-08-23 07:45:00,79.3,76.5,29.97,SSW,207,0.0,1.0,91,0.00,,,0.00,meteohub,2014-08-23 12:45:00,
2014-08-23 07:50:00,79.7,76.8,29.97,SW,228,0.0,0.0,91,0.00,,,0.00,meteohub,2014-08-23 12:50:00,
2014-08-23 07:55:00,80.1,76.8,29.98,SW,228,0.0,1.0,90,0.00,,,0.00,meteohub,2014-08-23 12:55:00,
2014-08-23 08:00:00,80.2,77.0,29.98,SW,225,0.0,1.0,90,0.00,,,0.00,meteohub,2014-08-23 13:00:00,
2014-08-23 08:05:00,80.6,77.0,29.98,ENE,71,0.0,1.0,89,0.00,,,0.00,meteohub,2014-08-23 13:05:00,
2014-08-23 08:10:00,81.0,77.4,29.98,ESE,121,0.0,1.0,89,0.00,,,0.00,meteohub,2014-08-23 13:10:00,
2014-08-23 08:15:00,81.1,77.2,29.98,ESE,115,1.0,2.0,88,0.00,,,0.00,meteohub,2014-08-23 13:15:00,
2014-08-23 08:20:00,81.7,77.7,29.98,SE,124,0.0,2.0,88,0.00,,,0.00,meteohub,2014-08-23 13:20:00,
2014-08-23 08:25:00,82.0,77.7,29.98,ESE,122,0.0,2.0,87,0.00,,,0.00,meteohub,2014-08-23 13:25:00,
2014-08-23 08:30:00,82.4,77.7,29.98,SW,231,1.0,2.0,86,0.00,,,0.00,meteohub,2014-08-23 13:30:00,
2014-08-23 08:35:00,82.6,77.9,29.98,SW,225,1.0,2.0,86,0.00,,,0.00,meteohub,2014-08-23 13:35:00,
2014-08-23 08:40:00,82.8,78.1,29.98,WNW,283,0.0,3.0,86,0.00,,,0.00,meteohub,2014-08-23 13:40:00,
2014-08-23 08:45:00,83.1,78.4,29.98,SSW,203,1.0,3.0,86,0.00,,,0.00,meteohub,2014-08-23 13:45:00,
2014-08-23 08:50:00,83.7,78.6,29.98,WNW,283,0.0,3.0,85,0.00,,,0.00,meteohub,2014-08-23 13:50:00,
2014-08-23 08:55:00,84.0,77.9,29.98,SSW,203,2.0,3.0,82,0.00,,,0.00,meteohub,2014-08-23 13:55:00,
2014-08-23 09:00:00,84.4,78.6,29.98,SW,236,2.0,5.0,83,0.00,,,0.00,meteohub,2014-08-23 14:00:00,
2014-08-23 09:05:00,84.4,78.6,29.98,West,270,0.0,5.0,83,0.00,,,0.00,meteohub,2014-08-23 14:05:00,
2014-08-23 09:10:00,84.4,78.6,29.98,WNW,298,0.0,6.0,83,0.00,,,0.00,meteohub,2014-08-23 14:10:00,
2014-08-23 09:15:00,84.7,78.6,29.99,WNW,296,0.0,6.0,82,0.00,,,0.00,meteohub,2014-08-23 14:15:00,
2014-08-23 09:20:00,85.3,79.2,29.99,West,267,0.0,6.0,82,0.00,,,0.00,meteohub,2014-08-23 14:20:00,
2014-08-23 09:25:00,85.3,78.8,29.99,WSW,250,1.0,5.0,81,0.00,,,0.00,meteohub,2014-08-23 14:25:00,
2014-08-23 09:30:00,85.5,78.6,29.99,WNW,297,2.0,6.0,80,0.00,,,0.00,meteohub,2014-08-23 14:30:00,
2014-08-23 09:35:00,85.5,78.3,29.99,WSW,252,2.0,6.0,79,0.00,,,0.00,meteohub,2014-08-23 14:35:00,
2014-08-23 09:40:00,85.3,78.4,29.99,West,259,1.0,6.0,80,0.00,,,0.00,meteohub,2014-08-23 14:40:00,
2014-08-23 09:45:00,85.6,78.8,29.99,SSW,212,1.0,7.0,80,0.00,,,0.00,meteohub,2014-08-23 14:45:00,
2014-08-23 09:50:00,86.2,78.1,29.99,SW,221,2.0,7.0,77,0.00,,,0.00,meteohub,2014-08-23 14:50:00,
2014-08-23 09:55:00,86.4,77.5,29.98,NW,321,2.0,8.0,75,0.00,,,0.00,meteohub,2014-08-23 14:55:00,
2014-08-23 10:00:00,86.9,77.5,29.98,South,170,0.0,8.0,74,0.00,,,0.00,meteohub,2014-08-23 15:00:00,
2014-08-23 10:05:00,87.6,77.5,29.98,WSW,250,2.0,8.0,72,0.00,,,0.00,meteohub,2014-08-23 15:05:00,
2014-08-23 10:10:00,87.6,77.0,29.99,SSW,211,6.0,6.0,71,0.00,,,0.00,meteohub,2014-08-23 15:10:00,
2014-08-23 10:15:00,88.2,77.5,29.99,SW,214,0.0,7.0,71,0.00,,,0.00,meteohub,2014-08-23 15:15:00,
2014-08-23 10:20:00,88.3,75.9,29.99,NW,314,5.0,7.0,67,0.00,,,0.00,meteohub,2014-08-23 15:20:00,
2014-08-23 10:25:00,87.8,75.0,29.99,WNW,290,2.0,7.0,66,0.00,,,0.00,meteohub,2014-08-23 15:25:00,
2014-08-23 10:31:00,87.4,74.7,29.99,SW,229,2.0,6.0,66,0.00,,,0.00,meteohub,2014-08-23 15:31:00,
2014-08-23 10:36:00,88.2,75.4,29.99,WSW,248,1.0,6.0,66,0.00,,,0.00,meteohub,2014-08-23 15:36:00,
2014-08-23 10:41:00,88.9,74.7,29.99,West,269,3.0,6.0,63,0.00,,,0.00,meteohub,2014-08-23 15:41:00,
2014-08-23 10:46:00,89.1,74.8,29.99,WSW,249,2.0,6.0,63,0.00,,,0.00,meteohub,2014-08-23 15:46:00,
2014-08-23 10:51:00,89.2,75.0,29.99,WSW,256,1.0,6.0,63,0.00,,,0.00,meteohub,2014-08-23 15:51:00,
2014-08-23 10:56:00,89.8,75.0,29.99,West,273,2.0,6.0,62,0.00,,,0.00,meteohub,2014-08-23 15:56:00,
2014-08-23 11:01:00,90.3,74.5,29.99,WNW,284,1.0,6.0,60,0.00,,,0.00,meteohub,2014-08-23 16:01:00,
2014-08-23 11:06:00,90.5,74.7,29.99,West,278,0.0,5.0,60,0.00,,,0.00,meteohub,2014-08-23 16:06:00,
2014-08-23 11:11:00,91.6,75.7,29.99,ESE,122,1.0,5.0,60,0.00,,,0.00,meteohub,2014-08-23 16:11:00,
2014-08-23 11:16:00,91.8,75.4,29.99,WNW,297,1.0,7.0,59,0.00,,,0.00,meteohub,2014-08-23 16:16:00,
2014-08-23 11:21:00,91.8,74.3,29.99,WNW,297,1.0,7.0,57,0.00,,,0.00,meteohub,2014-08-23 16:21:00,